RH
37 40 37 35 34 35 40 40 37 36 42 46 52 59 58 55 53 54 54 50 38 33 36 40 39 37 31 21 16 16 17 17 20 20 19 18 18 16 18 19 17 17 16
36 39 39 36 37 35 35 38 41 36 42 48 54 55 55 54 56 54 47 38 35 40 41 42 38 30 23 19 18 18 21 23 23 22 20 18 18 19 21 19 19 18 18
36 38 39 38 38 37 34 33 36 40 45 53 54 53 55 55 52 44 38 40 43 45 46 42 33 26 22 21 19 23 25 24 23 21 21 21 21 20 20 20 20 19 18
37 40 41 39 41 41 36 35 38 49 53 51 51 51 52 51 44 41 41 44 48 48 43 36 32 29 26 23 25 26 25 23 22 22 22 23 23 22 21 20 19 18 16
39 41 42 40 43 44 40 43 46 48 51 51 49 50 51 45 41 42 46 49 50 46 40 36 34 32 30 31 29 26 25 24 24 24 24 24 23 24 24 21 17 14 12
39 44 47 46 45 48 43 47 48 49 49 46 47 47 44 41 43 46 50 52 51 47 42 40 38 37 38 35 29 26 26 25 26 26 25 25 26 25 22 20 17 15 13
40 44 48 47 48 49 44 49 49 48 46 43 43 43 43 45 48 52 55 55 53 50 49 45 43 42 39 35 31 28 27 27 27 26 26 27 25 23 19 17 15 16 14
40 45 49 47 50 53 48 51 50 49 45 42 41 42 46 51 54 56 55 53 52 51 54 51 47 44 40 37 32 29 28 28 27 28 28 27 24 20 18 18 18 17 16
41 45 48 47 53 59 55 52 52 49 44 43 44 45 50 55 57 56 54 54 52 53 60 55 48 45 41 36 30 29 29 28 30 30 28 24 21 18 18 18 19 20 23
43 45 49 49 55 61 61 54 52 49 46 46 48 49 53 55 57 57 56 56 56 59 64 56 47 42 37 32 31 30 30 32 31 30 26 22 20 19 20 20 20 23 27
46 47 50 54 58 60 56 53 52 51 50 51 52 54 56 57 59 59 60 62 66 62 64 58 45 35 32 33 33 30 33 34 33 29 24 22 22 23 22 22 22 24 29
52 52 53 55 58 56 53 53 52 51 53 56 56 57 59 60 61 63 66 70 70 64 63 52 37 32 34 35 31 34 37 36 32 26 23 24 25 25 24 22 23 25 29
54 53 53 53 53 52 52 51 52 52 55 58 58 60 62 63 65 70 74 74 71 65 62 43 35 36 36 35 35 39 39 34 28 26 26 26 25 24 23 25 26 30 34
56 56 54 54 54 53 51 52 54 56 59 60 62 63 64 67 72 75 78 76 70 68 55 39 36 38 37 36 41 40 35 29 27 27 26 25 24 24 26 29 32 35 36
54 53 52 53 52 52 50 53 57 62 64 65 64 64 68 72 75 77 78 74 72 60 43 39 39 37 39 41 41 36 30 28 27 25 23 22 23 26 30 33 33 33 40
55 54 55 55 56 57 57 62 64 66 66 65 65 68 71 74 77 80 78 77 62 46 39 35 38 38 41 41 34 30 29 26 24 21 19 21 22 23 27 28 33 44 49
55 55 56 57 57 58 60 64 66 64 63 64 68 70 74 80 81 80 77 63 46 37 36 38 37 41 39 33 30 30 30 25 22 21 22 23 24 26 26 29 39 50 54
54 57 59 62 64 64 65 66 66 65 67 68 70 76 80 82 82 71 58 41 36 37 36 36 40 37 32 30 28 29 26 23 23 25 27 29 29 29 38 46 49 50 50
54 50 53 56 59 62 64 65 65 66 69 74 76 80 82 73 63 49 39 37 38 36 37 39 36 33 31 28 25 26 25 25 27 28 31 32 33 35 47 51 52 48 45
63 62 62 61 64 65 67 69 70 72 73 76 79 73 65 56 44 38 40 39 36 37 37 35 35 32 28 25 23 27 28 30 29 32 31 31 37 43 51 54 48 47 53
66 66 67 68 71 71 72 74 76 76 73 72 68 59 47 41 43 43 39 37 36 36 36 35 32 29 26 24 23 29 32 33 35 31 30 34 38 44 48 47 48 68 83
66 68 69 72 74 74 73 70 67 65 63 55 47 43 45 45 43 40 37 35 36 37 35 31 29 26 24 24 25 31 36 36 33 33 34 36 42 47 43 47 75 86 87
67 69 70 69 69 66 63 61 59 50 44 44 48 48 45 44 41 37 36 37 37 35 32 29 25 24 24 25 27 30 34 34 36 36 39 40 44 39 49 75 84 86 87
65 63 62 61 61 59 51 45 42 43 47 49 47 47 45 39 36 37 39 38 36 32 29 26 25 25 25 26 28 34 33 34 36 40 40 40 39 56 77 81 85 88 91
60 58 54 48 44 42 39 40 46 49 48 48 49 43 38 37 39 40 39 37 34 29 27 26 28 28 28 30 36 34 35 36 40 41 38 37 56 79 83 87 89 91 93
59 51 46 43 38 38 43 48 48 47 49 47 41 38 38 40 42 41 39 34 29 27 26 27 26 26 29 28 31 33 35 39 40 39 38 56 79 85 88 90 93 93 89